NIGERIASAT X

Satellite information

Favourite Embed

Satellite Type and Status

PAYLOADIN ORBIT

Key statistics

Satellite NIGERIASAT X at a glance.

Uptime

5233

Days in orbit

Revolutions

≈ 14.6

Per day

Orbit

SSO

Sun Synchronous Orbit

Inclination

97.8

Latest

Satellite identification and parameters

Extended collection of information and parameters for NIGERIASAT X.

Object identification

Identified? True

Debris? False

Object name: NIGERIASAT X

International designator: 2011-044C

Object number (NORAD): 37790

Object ID (CCSDS): 37790

Country: NIGERIA (NIG)

Current information (Y/N): Y

RCS size: MEDIUM

Orbital parameters

Period: 98.585 minutes

Inclination: 97.8389 deg

SMA: 7069.136 km

Apoapsis: 699.406 km

Periapsis: 682.596 km

RAAN: 336.3269 deg

Eccentricy: 0.00118892

Argument of periapsis: 193.7782 deg

Mean anomaly: 166.3096 deg

Mean motion: 14.60673893 rev/day

Mean motion (dot): 0.00000669 rev/day2

B* drag term: 0.00014620097 1/REarth

Two-line elements (TLE)

Creation date: Dec. 14, 2025, 3:07 a.m.

Reference frame: TEME

Reference center: EARTH

Epoch: Dec. 13, 2025, 12:09 p.m. UTC

TLE line 0: 0 NIGERIASAT X

TLE line 1: 1 37790U 11044C 25347.50678850 .00000669 00000-0 14620-3 0 9993

TLE line 2: 2 37790 97.8389 336.3269 0011889 193.7782 166.3096 14.60673893763068

Live tracking on map

Real-time ground track for satellite NIGERIASAT X.

In-orbit conjunctions

There are no conjunctions computed for NIGERIASAT X, at the moment. Check back to stay up to date, as we update our databases every day.

Go to all conjunctions

Associated space launch

NIGERIASAT X was lifted into orbit during the mission ‘Dnepr 1 | Sich-2’, on board a Dnepr space rocket.

The launch took place on Aug. 17, 2011, 7:12 a.m. from 370/13.

For more information about the launch, click the button.

Launch to space Dnepr 1 | Sich-2
Dnepr 1 | Sich-2

Agency: N/A

Status: Launch Successful

Launch date: Aug. 17, 2011, 7:12 a.m. UTC

Rocket: Dnepr

Launch pad: 370/13

Location: Dombarovskiy, Russian Federation

...

Latest news about this satellite

There are no fresh news available about this satellite. Check back as we update our databases every day.


Newsletter sign-up

Weekly statistics, charts and insights to help you stay on top of the space industry.